Time,TemperatureF,DewpointF,PressureIn,WindDirection,WindDirectionDegrees,WindSpeedMPH,WindSpeedGustMPH,Humidity,HourlyPrecipIn,Conditions,Clouds,dailyrainin,SoftwareType,DateUTC
2013-09-19 00:03:00,66.9,64.0,29.90,SSW,193,0.0,0.0,91,0.00,,,0.00,weatherlink.com 1.10,2013-09-19 05:03:00,
2013-09-19 00:18:00,66.9,65.0,29.90,SSW,193,0.0,0.0,92,0.00,,,0.00,weatherlink.com 1.10,2013-09-19 05:18:00,
2013-09-19 00:33:00,66.8,65.0,29.90,SSW,193,0.0,1.0,92,0.00,,,0.00,weatherlink.com 1.10,2013-09-19 05:33:00,
2013-09-19 00:48:00,66.8,65.0,29.90,SSW,193,0.0,1.0,92,0.00,,,0.00,weatherlink.com 1.10,2013-09-19 05:48:00,
2013-09-19 01:03:00,66.6,65.0,29.90,SSW,193,0.0,2.0,93,0.00,,,0.00,weatherlink.com 1.10,2013-09-19 06:03:00,
2013-09-19 01:18:00,66.6,65.0,29.90,SSW,193,0.0,1.0,93,0.00,,,0.00,weatherlink.com 1.10,2013-09-19 06:18:00,
2013-09-19 01:33:00,66.4,64.0,29.90,SSW,193,0.0,0.0,93,0.00,,,0.00,weatherlink.com 1.10,2013-09-19 06:33:00,
2013-09-19 01:48:00,66.2,65.0,29.90,SSW,193,0.0,0.0,94,0.00,,,0.00,weatherlink.com 1.10,2013-09-19 06:48:00,
2013-09-19 02:03:00,66.1,64.0,29.89,SSW,193,0.0,0.0,94,0.00,,,0.00,weatherlink.com 1.10,2013-09-19 07:03:00,
2013-09-19 02:18:00,66.0,64.0,29.89,SSW,193,0.0,1.0,94,0.00,,,0.00,weatherlink.com 1.10,2013-09-19 07:18:00,
2013-09-19 02:33:00,65.9,65.0,29.88,SSW,193,0.0,0.0,95,0.00,,,0.00,weatherlink.com 1.10,2013-09-19 07:33:00,
2013-09-19 02:48:00,65.8,64.0,29.88,SSW,193,0.0,0.0,95,0.00,,,0.00,weatherlink.com 1.10,2013-09-19 07:48:00,
2013-09-19 03:03:00,65.7,64.0,29.88,SSW,193,0.0,0.0,95,0.00,,,0.00,weatherlink.com 1.10,2013-09-19 08:03:00,
2013-09-19 03:18:00,65.7,65.0,29.88,SSW,193,0.0,0.0,96,0.00,,,0.00,weatherlink.com 1.10,2013-09-19 08:18:00,
2013-09-19 03:33:00,65.6,65.0,29.88,SSW,193,0.0,0.0,96,0.00,,,0.00,weatherlink.com 1.10,2013-09-19 08:33:00,
2013-09-19 03:48:00,65.6,65.0,29.87,SSW,193,0.0,0.0,96,0.00,,,0.00,weatherlink.com 1.10,2013-09-19 08:48:00,
2013-09-19 04:18:00,65.6,65.0,29.86,SSW,193,0.0,0.0,96,0.00,,,0.00,weatherlink.com 1.10,2013-09-19 09:18:00,
2013-09-19 04:33:00,65.8,65.0,29.87,SSW,193,0.0,0.0,97,0.00,,,0.00,weatherlink.com 1.10,2013-09-19 09:33:00,
2013-09-19 04:48:00,66.0,65.0,29.87,SSW,193,0.0,0.0,97,0.00,,,0.00,weatherlink.com 1.10,2013-09-19 09:48:00,
2013-09-19 05:03:00,66.2,65.0,29.87,SSW,193,0.0,0.0,97,0.00,,,0.00,weatherlink.com 1.10,2013-09-19 10:03:00,
2013-09-19 05:18:00,66.5,66.0,29.87,SSW,193,0.0,0.0,97,0.00,,,0.00,weatherlink.com 1.10,2013-09-19 10:18:00,
2013-09-19 05:33:00,66.7,66.0,29.86,SSW,193,0.0,0.0,97,0.00,,,0.00,weatherlink.com 1.10,2013-09-19 10:33:00,
2013-09-19 05:48:00,66.8,66.0,29.86,SSW,193,0.0,1.0,97,0.00,,,0.00,weatherlink.com 1.10,2013-09-19 10:48:00,
2013-09-19 06:03:00,67.1,66.0,29.87,SSW,193,0.0,1.0,97,0.00,,,0.00,weatherlink.com 1.10,2013-09-19 11:03:00,
2013-09-19 06:19:00,67.3,67.0,29.87,SSW,193,0.0,0.0,97,0.00,,,0.00,weatherlink.com 1.10,2013-09-19 11:19:00,
2013-09-19 06:34:00,67.4,67.0,29.86,SSW,193,0.0,1.0,97,0.00,,,0.00,weatherlink.com 1.10,2013-09-19 11:34:00,
2013-09-19 06:49:00,67.4,67.0,29.88,SSW,193,0.0,0.0,97,0.00,,,0.00,weatherlink.com 1.10,2013-09-19 11:49:00,
2013-09-19 07:04:00,67.4,67.0,29.90,SSW,193,0.0,0.0,97,0.00,,,0.00,weatherlink.com 1.10,2013-09-19 12:04:00,
2013-09-19 07:19:00,67.4,67.0,29.89,SSW,193,0.0,2.0,97,0.01,,,0.01,weatherlink.com 1.10,2013-09-19 12:19:00,
2013-09-19 07:34:00,67.7,67.0,29.89,SSW,193,0.0,1.0,97,0.01,,,0.01,weatherlink.com 1.10,2013-09-19 12:34:00,
2013-09-19 07:49:00,67.9,67.0,29.89,SSW,193,0.0,0.0,97,0.01,,,0.01,weatherlink.com 1.10,2013-09-19 12:49:00,
2013-09-19 08:04:00,67.8,67.0,29.89,South,191,0.0,1.0,97,0.02,,,0.02,weatherlink.com 1.10,2013-09-19 13:04:00,
2013-09-19 08:19:00,67.9,67.0,29.88,South,191,0.0,2.0,97,0.03,,,0.04,weatherlink.com 1.10,2013-09-19 13:19:00,
2013-09-19 08:34:00,68.1,67.0,29.88,South,191,0.0,2.0,97,0.04,,,0.05,weatherlink.com 1.10,2013-09-19 13:34:00,
2013-09-19 08:49:00,68.1,67.0,29.86,South,191,0.0,1.0,97,0.04,,,0.05,weatherlink.com 1.10,2013-09-19 13:49:00,
2013-09-19 09:04:00,68.1,67.0,29.85,South,189,0.0,2.0,97,0.04,,,0.06,weatherlink.com 1.10,2013-09-19 14:04:00,
2013-09-19 09:19:00,68.1,67.0,29.86,South,189,0.0,1.0,97,0.02,,,0.06,weatherlink.com 1.10,2013-09-19 14:19:00,
2013-09-19 09:34:00,68.0,67.0,29.87,South,189,0.0,1.0,97,0.01,,,0.06,weatherlink.com 1.10,2013-09-19 14:34:00,
2013-09-19 09:49:00,68.3,68.0,29.87,South,189,0.0,1.0,97,0.01,,,0.06,weatherlink.com 1.10,2013-09-19 14:49:00,
2013-09-19 10:04:00,68.5,68.0,29.89,South,189,0.0,1.0,97,0.02,,,0.08,weatherlink.com 1.10,2013-09-19 15:04:00,
2013-09-19 10:19:00,68.6,68.0,29.89,South,189,0.0,1.0,97,0.05,,,0.11,weatherlink.com 1.10,2013-09-19 15:19:00,
2013-09-19 10:34:00,68.6,68.0,29.87,South,189,0.0,1.0,97,0.07,,,0.13,weatherlink.com 1.10,2013-09-19 15:34:00,
2013-09-19 10:49:00,68.7,68.0,29.87,South,189,0.0,1.0,97,0.10,,,0.16,weatherlink.com 1.10,2013-09-19 15:49:00,
2013-09-19 11:04:00,69.2,68.0,29.88,South,189,0.0,0.0,97,0.08,,,0.16,weatherlink.com 1.10,2013-09-19 16:04:00,
2013-09-19 11:19:00,69.6,69.0,29.89,South,189,0.0,0.0,97,0.04,,,0.16,weatherlink.com 1.10,2013-09-19 16:19:00,
2013-09-19 11:34:00,69.7,69.0,29.88,South,189,0.0,0.0,97,0.05,,,0.19,weatherlink.com 1.10,2013-09-19 16:34:00,
2013-09-19 11:49:00,69.9,69.0,29.87,South,189,0.0,0.0,98,0.03,,,0.19,weatherlink.com 1.10,2013-09-19 16:49:00,
2013-09-19 12:04:00,71.0,70.0,29.85,South,189,0.0,0.0,98,0.03,,,0.19,weatherlink.com 1.10,2013-09-19 17:04:00,
2013-09-19 12:19:00,72.5,72.0,29.85,South,189,0.0,1.0,98,0.03,,,0.19,weatherlink.com 1.10,2013-09-19 17:19:00,
2013-09-19 12:34:00,73.0,72.0,29.84,WSW,255,0.0,1.0,98,0.00,,,0.19,weatherlink.com 1.10,2013-09-19 17:34:00,
2013-09-19 12:49:00,72.7,72.0,29.83,West,261,0.0,1.0,97,0.00,,,0.19,weatherlink.com 1.10,2013-09-19 17:49:00,
2013-09-19 13:04:00,73.5,73.0,29.83,SSE,159,1.0,3.0,97,0.00,,,0.19,weatherlink.com 1.10,2013-09-19 18:04:00,
2013-09-19 13:19:00,74.5,73.0,29.83,SSE,166,1.0,2.0,94,0.00,,,0.19,weatherlink.com 1.10,2013-09-19 18:19:00,
2013-09-19 13:34:00,75.2,73.0,29.82,SSE,166,0.0,1.0,92,0.00,,,0.19,weatherlink.com 1.10,2013-09-19 18:34:00,
2013-09-19 13:49:00,75.8,73.0,29.81,SSE,166,0.0,1.0,91,0.00,,,0.19,weatherlink.com 1.10,2013-09-19 18:49:00,
2013-09-19 14:04:00,76.6,73.0,29.82,SSE,166,0.0,3.0,87,0.00,,,0.19,weatherlink.com 1.10,2013-09-19 19:04:00,
2013-09-19 14:19:00,77.0,73.0,29.82,South,177,0.0,1.0,87,0.00,,,0.19,weatherlink.com 1.10,2013-09-19 19:19:00,
2013-09-19 14:34:00,77.2,73.0,29.81,SSW,208,0.0,2.0,86,0.00,,,0.19,weatherlink.com 1.10,2013-09-19 19:34:00,
2013-09-19 14:49:00,77.6,73.0,29.80,SSW,199,0.0,2.0,85,0.00,,,0.19,weatherlink.com 1.10,2013-09-19 19:49:00,
2013-09-19 15:04:00,78.1,73.0,29.79,WSW,253,0.0,2.0,84,0.00,,,0.19,weatherlink.com 1.10,2013-09-19 20:04:00,
2013-09-19 15:19:00,78.9,73.0,29.78,South,184,1.0,4.0,83,0.00,,,0.19,weatherlink.com 1.10,2013-09-19 20:19:00,
2013-09-19 15:35:00,79.1,74.0,29.78,South,188,0.0,3.0,83,0.00,,,0.19,weatherlink.com 1.10,2013-09-19 20:35:00,
2013-09-19 15:50:00,79.1,73.0,29.77,South,189,0.0,2.0,82,0.00,,,0.19,weatherlink.com 1.10,2013-09-19 20:50:00,
2013-09-19 16:05:00,78.9,73.0,29.76,South,175,0.0,2.0,82,0.00,,,0.19,weatherlink.com 1.10,2013-09-19 21:05:00,
2013-09-19 16:20:00,78.6,73.0,29.74,SW,219,0.0,1.0,83,0.00,,,0.19,weatherlink.com 1.10,2013-09-19 21:20:00,
2013-09-19 16:35:00,78.7,73.0,29.73,South,191,0.0,3.0,83,0.00,,,0.19,weatherlink.com 1.10,2013-09-19 21:35:00,
2013-09-19 16:50:00,78.4,73.0,29.73,South,191,0.0,1.0,84,0.00,,,0.19,weatherlink.com 1.10,2013-09-19 21:50:00,
2013-09-19 17:05:00,77.8,73.0,29.72,SSW,192,0.0,1.0,85,0.00,,,0.19,weatherlink.com 1.10,2013-09-19 22:05:00,
2013-09-19 17:20:00,77.2,72.0,29.71,SSW,192,0.0,3.0,85,0.00,,,0.19,weatherlink.com 1.10,2013-09-19 22:20:00,
2013-09-19 17:35:00,76.8,72.0,29.71,SSW,192,0.0,1.0,86,0.00,,,0.19,weatherlink.com 1.10,2013-09-19 22:35:00,
2013-09-19 17:50:00,76.1,72.0,29.72,SSW,192,0.0,1.0,87,0.00,,,0.19,weatherlink.com 1.10,2013-09-19 22:50:00,
2013-09-19 18:05:00,75.7,72.0,29.72,SSW,192,0.0,1.0,88,0.00,,,0.19,weatherlink.com 1.10,2013-09-19 23:05:00,
2013-09-19 18:20:00,75.5,72.0,29.73,SW,227,0.0,1.0,88,0.00,,,0.19,weatherlink.com 1.10,2013-09-19 23:20:00,
2013-09-19 18:35:00,75.0,71.0,29.72,SW,227,0.0,1.0,88,0.00,,,0.19,weatherlink.com 1.10,2013-09-19 23:35:00,
2013-09-19 18:50:00,74.5,71.0,29.80,South,182,1.0,4.0,88,0.00,,,0.19,weatherlink.com 1.10,2013-09-19 23:50:00,
2013-09-19 19:05:00,72.1,67.0,29.80,NNE,19,0.0,4.0,84,0.02,,,0.21,weatherlink.com 1.10,2013-09-20 00:05:00,
2013-09-19 19:20:00,69.4,66.0,29.79,NNE,16,0.0,3.0,90,0.05,,,0.24,weatherlink.com 1.10,2013-09-20 00:20:00,
2013-09-19 19:35:00,68.4,66.0,29.79,NNE,16,0.0,2.0,93,0.08,,,0.27,weatherlink.com 1.10,2013-09-20 00:35:00,
2013-09-19 19:50:00,67.9,66.0,29.79,NNW,338,0.0,1.0,94,0.08,,,0.27,weatherlink.com 1.10,2013-09-20 00:50:00,
2013-09-19 20:05:00,67.6,66.0,29.78,NNW,338,0.0,0.0,95,0.06,,,0.27,weatherlink.com 1.10,2013-09-20 01:05:00,
2013-09-19 20:20:00,67.2,66.0,29.76,NNW,338,0.0,0.0,95,0.02,,,0.27,weatherlink.com 1.10,2013-09-20 01:20:00,
2013-09-19 20:35:00,67.0,66.0,29.76,NNW,338,0.0,0.0,96,0.00,,,0.27,weatherlink.com 1.10,2013-09-20 01:35:00,
2013-09-19 20:50:00,66.8,66.0,29.75,NNW,338,0.0,0.0,96,0.00,,,0.27,weatherlink.com 1.10,2013-09-20 01:50:00,
2013-09-19 21:05:00,66.7,66.0,29.75,NNW,338,0.0,1.0,96,0.00,,,0.27,weatherlink.com 1.10,2013-09-20 02:05:00,
2013-09-19 21:20:00,66.7,66.0,29.76,NNE,22,0.0,3.0,96,0.00,,,0.27,weatherlink.com 1.10,2013-09-20 02:20:00,
2013-09-19 21:35:00,66.7,66.0,29.74,NNE,22,0.0,0.0,96,0.00,,,0.27,weatherlink.com 1.10,2013-09-20 02:35:00,
2013-09-19 21:50:00,66.7,66.0,29.75,NNE,22,0.0,0.0,96,0.00,,,0.27,weatherlink.com 1.10,2013-09-20 02:50:00,
2013-09-19 22:05:00,66.7,66.0,29.76,West,259,1.0,5.0,96,0.00,,,0.27,weatherlink.com 1.10,2013-09-20 03:05:00,
2013-09-19 22:20:00,66.8,66.0,29.81,West,276,0.0,2.0,96,0.00,,,0.27,weatherlink.com 1.10,2013-09-20 03:20:00,
2013-09-19 22:35:00,66.4,65.0,29.77,SSW,201,0.0,3.0,96,0.04,,,0.31,weatherlink.com 1.10,2013-09-20 03:35:00,
2013-09-19 22:50:00,65.9,65.0,29.75,SSW,201,0.0,2.0,96,0.04,,,0.31,weatherlink.com 1.10,2013-09-20 03:50:00,
2013-09-19 23:05:00,65.7,65.0,29.75,SSW,201,0.0,0.0,96,0.04,,,0.31,weatherlink.com 1.10,2013-09-20 04:05:00,
2013-09-19 23:20:00,65.6,65.0,29.73,SSW,201,0.0,0.0,96,0.04,,,0.31,weatherlink.com 1.10,2013-09-20 04:20:00,
2013-09-19 23:35:00,65.4,64.0,29.72,WSW,242,0.0,1.0,96,0.00,,,0.31,weatherlink.com 1.10,2013-09-20 04:35:00,
2013-09-19 23:50:00,65.4,64.0,29.72,WSW,242,0.0,0.0,96,0.00,,,0.31,weatherlink.com 1.10,2013-09-20 04:50:00,